Time,TemperatureF,DewpointF,PressureIn,WindDirection,WindDirectionDegrees,WindSpeedMPH,WindSpeedGustMPH,Humidity,HourlyPrecipIn,Conditions,Clouds,dailyrainin,SolarRadiationWatts/m^2,SoftwareType,DateUTC
2013-05-20 00:05:00,50.3,42.0,30.02,NNW,343,0.0,3.0,73,0.00,,,0.00,0,weatherlink.com 1.10,2013-05-20 07:05:00,
2013-05-20 00:20:00,50.0,42.0,30.01,NNW,343,0.0,1.0,73,0.00,,,0.00,0,weatherlink.com 1.10,2013-05-20 07:20:00,
2013-05-20 00:35:00,50.8,42.0,30.02,NNE,20,0.0,3.0,73,0.00,,,0.00,0,weatherlink.com 1.10,2013-05-20 07:35:00,
2013-05-20 00:50:00,50.6,42.0,30.02,NNE,20,0.0,3.0,73,0.00,,,0.00,0,weatherlink.com 1.10,2013-05-20 07:50:00,
2013-05-20 01:05:00,49.9,42.0,30.02,NNE,20,0.0,1.0,73,0.00,,,0.00,0,weatherlink.com 1.10,2013-05-20 08:05:00,
2013-05-20 01:20:00,50.1,42.0,30.02,NNE,21,0.0,5.0,73,0.00,,,0.00,0,weatherlink.com 1.10,2013-05-20 08:20:00,
2013-05-20 01:35:00,49.2,41.0,30.02,NNE,21,0.0,1.0,74,0.00,,,0.00,0,weatherlink.com 1.10,2013-05-20 08:35:00,
2013-05-20 01:50:00,49.0,41.0,30.01,NNE,21,2.0,4.0,73,0.00,,,0.00,0,weatherlink.com 1.10,2013-05-20 08:50:00,
2013-05-20 02:05:00,49.3,41.0,30.01,NNE,21,3.0,3.0,73,0.00,,,0.00,0,weatherlink.com 1.10,2013-05-20 09:05:00,
2013-05-20 02:20:00,49.4,41.0,30.01,NNE,21,0.0,5.0,73,0.00,,,0.00,0,weatherlink.com 1.10,2013-05-20 09:20:00,
2013-05-20 02:35:00,48.7,40.0,30.01,NNE,21,2.0,4.0,73,0.00,,,0.00,0,weatherlink.com 1.10,2013-05-20 09:35:00,
2013-05-20 02:50:00,49.4,41.0,30.01,NNE,21,3.0,6.0,72,0.00,,,0.00,0,weatherlink.com 1.10,2013-05-20 09:50:00,
2013-05-20 03:05:00,49.7,41.0,30.00,NNE,21,0.0,4.0,73,0.00,,,0.00,0,weatherlink.com 1.10,2013-05-20 10:05:00,
2013-05-20 03:20:00,49.4,41.0,30.00,NNE,21,0.0,5.0,73,0.00,,,0.00,0,weatherlink.com 1.10,2013-05-20 10:20:00,
2013-05-20 03:50:00,49.0,41.0,30.00,NNE,21,0.0,4.0,73,0.00,,,0.00,0,weatherlink.com 1.10,2013-05-20 10:50:00,
2013-05-20 04:05:00,48.7,40.0,30.00,NNE,21,3.0,4.0,73,0.00,,,0.00,0,weatherlink.com 1.10,2013-05-20 11:05:00,
2013-05-20 04:20:00,49.4,41.0,30.00,NNE,21,4.0,6.0,73,0.00,,,0.00,0,weatherlink.com 1.10,2013-05-20 11:20:00,
2013-05-20 04:35:00,49.5,41.0,30.00,NE,49,3.0,7.0,73,0.00,,,0.00,0,weatherlink.com 1.10,2013-05-20 11:35:00,
2013-05-20 04:50:00,49.3,41.0,30.00,NNE,26,4.0,6.0,73,0.00,,,0.00,0,weatherlink.com 1.10,2013-05-20 11:50:00,
2013-05-20 05:05:00,49.4,41.0,30.00,NE,36,5.0,7.0,73,0.00,,,0.00,0,weatherlink.com 1.10,2013-05-20 12:05:00,
2013-05-20 05:20:00,49.1,41.0,30.00,NE,37,5.0,7.0,73,0.00,,,0.00,0,weatherlink.com 1.10,2013-05-20 12:20:00,
2013-05-20 05:35:00,49.4,41.0,30.00,NNE,25,4.0,7.0,73,0.00,,,0.00,0,weatherlink.com 1.10,2013-05-20 12:35:00,
2013-05-20 05:50:00,49.4,41.0,30.00,NE,36,0.0,7.0,73,0.00,,,0.00,0,weatherlink.com 1.10,2013-05-20 12:50:00,
2013-05-20 06:05:00,49.2,41.0,30.01,NNE,23,2.0,4.0,73,0.00,,,0.00,9,weatherlink.com 1.10,2013-05-20 13:05:00,
2013-05-20 06:20:00,49.0,41.0,30.01,NE,35,2.0,6.0,73,0.00,,,0.00,16,weatherlink.com 1.10,2013-05-20 13:20:00,
2013-05-20 06:36:00,48.7,40.0,30.01,NE,42,2.0,4.0,73,0.00,,,0.00,21,weatherlink.com 1.10,2013-05-20 13:36:00,
2013-05-20 06:51:00,48.8,40.0,30.01,NE,44,1.0,4.0,73,0.00,,,0.00,26,weatherlink.com 1.10,2013-05-20 13:51:00,
2013-05-20 07:06:00,49.4,41.0,30.01,NNW,343,0.0,3.0,72,0.00,,,0.00,149,weatherlink.com 1.10,2013-05-20 14:06:00,
2013-05-20 07:21:00,50.8,42.0,30.02,North,11,0.0,3.0,72,0.00,,,0.00,209,weatherlink.com 1.10,2013-05-20 14:21:00,
2013-05-20 07:36:00,52.3,44.0,30.02,NE,49,3.0,5.0,72,0.00,,,0.00,271,weatherlink.com 1.10,2013-05-20 14:36:00,
2013-05-20 07:51:00,53.5,45.0,30.02,NE,49,0.0,2.0,73,0.00,,,0.00,322,weatherlink.com 1.10,2013-05-20 14:51:00,
2013-05-20 08:06:00,53.9,45.0,30.02,NE,49,0.0,0.0,73,0.00,,,0.00,376,weatherlink.com 1.10,2013-05-20 15:06:00,
2013-05-20 08:21:00,54.1,46.0,30.02,NE,49,0.0,0.0,73,0.00,,,0.00,427,weatherlink.com 1.10,2013-05-20 15:21:00,
2013-05-20 08:36:00,53.6,45.0,30.02,WSW,238,0.0,5.0,73,0.00,,,0.00,476,weatherlink.com 1.10,2013-05-20 15:36:00,
2013-05-20 08:51:00,54.1,46.0,30.02,WSW,238,1.0,3.0,73,0.00,,,0.00,529,weatherlink.com 1.10,2013-05-20 15:51:00,
2013-05-20 09:06:00,54.9,46.0,30.02,West,267,3.0,5.0,73,0.00,,,0.00,575,weatherlink.com 1.10,2013-05-20 16:06:00,
2013-05-20 09:21:00,54.6,46.0,30.02,WNW,283,1.0,8.0,73,0.00,,,0.00,619,weatherlink.com 1.10,2013-05-20 16:21:00,
2013-05-20 09:36:00,54.9,46.0,30.02,West,267,5.0,7.0,72,0.00,,,0.00,666,weatherlink.com 1.10,2013-05-20 16:36:00,
2013-05-20 09:51:00,54.5,46.0,30.02,West,278,2.0,9.0,73,0.00,,,0.00,708,weatherlink.com 1.10,2013-05-20 16:51:00,
2013-05-20 10:06:00,55.0,46.0,30.02,West,259,3.0,9.0,72,0.00,,,0.00,747,weatherlink.com 1.10,2013-05-20 17:06:00,
2013-05-20 10:22:00,55.5,47.0,30.02,WSW,242,3.0,9.0,72,0.00,,,0.00,786,weatherlink.com 1.10,2013-05-20 17:22:00,
2013-05-20 10:37:00,55.2,47.0,30.02,WNW,294,3.0,10.0,73,0.00,,,0.00,823,weatherlink.com 1.10,2013-05-20 17:37:00,
2013-05-20 10:52:00,54.9,46.0,30.03,WSW,256,4.0,11.0,73,0.00,,,0.00,851,weatherlink.com 1.10,2013-05-20 17:52:00,
2013-05-20 11:07:00,54.6,46.0,30.02,WSW,248,7.0,12.0,72,0.00,,,0.00,882,weatherlink.com 1.10,2013-05-20 18:07:00,
2013-05-20 11:22:00,56.1,48.0,30.02,SW,236,4.0,7.0,73,0.00,,,0.00,911,weatherlink.com 1.10,2013-05-20 18:22:00,
2013-05-20 11:37:00,56.9,48.0,30.02,WSW,238,6.0,7.0,72,0.00,,,0.00,933,weatherlink.com 1.10,2013-05-20 18:37:00,
2013-05-20 11:52:00,55.7,47.0,30.03,WSW,252,3.0,10.0,72,0.00,,,0.00,947,weatherlink.com 1.10,2013-05-20 18:52:00,
2013-05-20 12:07:00,55.9,47.0,30.03,West,267,7.0,15.0,72,0.00,,,0.00,965,weatherlink.com 1.10,2013-05-20 19:07:00,
2013-05-20 12:22:00,55.5,47.0,30.02,WNW,292,5.0,11.0,72,0.00,,,0.00,974,weatherlink.com 1.10,2013-05-20 19:22:00,
2013-05-20 12:37:00,56.7,48.0,30.02,West,275,3.0,9.0,72,0.00,,,0.00,990,weatherlink.com 1.10,2013-05-20 19:37:00,
2013-05-20 12:52:00,56.8,47.0,30.02,West,260,8.0,11.0,71,0.00,,,0.00,977,weatherlink.com 1.10,2013-05-20 19:52:00,
2013-05-20 13:07:00,57.4,48.0,30.01,West,265,6.0,11.0,72,0.00,,,0.00,995,weatherlink.com 1.10,2013-05-20 20:07:00,
2013-05-20 13:22:00,58.3,49.0,30.01,West,263,4.0,10.0,70,0.00,,,0.00,991,weatherlink.com 1.10,2013-05-20 20:22:00,
2013-05-20 13:37:00,57.8,48.0,30.01,West,279,8.0,15.0,70,0.00,,,0.00,988,weatherlink.com 1.10,2013-05-20 20:37:00,
2013-05-20 13:52:00,57.6,48.0,30.01,NW,320,5.0,14.0,70,0.00,,,0.00,979,weatherlink.com 1.10,2013-05-20 20:52:00,
2013-05-20 14:07:00,57.9,48.0,30.00,West,272,7.0,12.0,70,0.00,,,0.00,962,weatherlink.com 1.10,2013-05-20 21:07:00,
2013-05-20 14:37:00,57.3,48.0,29.99,WNW,291,7.0,14.0,71,0.00,,,0.00,923,weatherlink.com 1.10,2013-05-20 21:37:00,
2013-05-20 14:52:00,58.2,48.0,29.99,WSW,239,8.0,13.0,70,0.00,,,0.00,918,weatherlink.com 1.10,2013-05-20 21:52:00,
2013-05-20 15:07:00,58.6,48.0,29.98,WNW,296,8.0,14.0,69,0.00,,,0.00,838,weatherlink.com 1.10,2013-05-20 22:07:00,
2013-05-20 15:22:00,59.1,49.0,29.97,WNW,297,5.0,14.0,69,0.00,,,0.00,838,weatherlink.com 1.10,2013-05-20 22:22:00,
2013-05-20 15:37:00,60.2,49.0,29.97,WNW,292,5.0,12.0,67,0.00,,,0.00,826,weatherlink.com 1.10,2013-05-20 22:37:00,
2013-05-20 15:52:00,60.2,49.0,29.97,WNW,302,6.0,16.0,67,0.00,,,0.00,766,weatherlink.com 1.10,2013-05-20 22:52:00,
2013-05-20 16:07:00,58.4,48.0,29.97,West,277,7.0,15.0,68,0.00,,,0.00,742,weatherlink.com 1.10,2013-05-20 23:07:00,
2013-05-20 16:22:00,57.2,47.0,29.96,SW,231,5.0,18.0,70,0.00,,,0.00,712,weatherlink.com 1.10,2013-05-20 23:22:00,
2013-05-20 16:37:00,57.3,48.0,29.96,West,274,7.0,17.0,70,0.00,,,0.00,589,weatherlink.com 1.10,2013-05-20 23:37:00,
2013-05-20 16:52:00,57.0,47.0,29.95,WNW,288,8.0,19.0,70,0.00,,,0.00,596,weatherlink.com 1.10,2013-05-20 23:52:00,
2013-05-20 17:07:00,56.9,47.0,29.95,West,275,7.0,17.0,69,0.00,,,0.00,468,weatherlink.com 1.10,2013-05-21 00:07:00,
2013-05-20 17:22:00,57.1,47.0,29.95,WNW,284,7.0,16.0,70,0.00,,,0.00,494,weatherlink.com 1.10,2013-05-21 00:22:00,
2013-05-20 17:37:00,56.6,47.0,29.95,WSW,253,4.0,15.0,70,0.00,,,0.00,418,weatherlink.com 1.10,2013-05-21 00:37:00,
2013-05-20 17:52:00,57.2,47.0,29.94,WSW,246,7.0,14.0,70,0.00,,,0.00,401,weatherlink.com 1.10,2013-05-21 00:52:00,
2013-05-20 18:08:00,57.0,47.0,29.94,WSW,258,8.0,13.0,70,0.00,,,0.00,345,weatherlink.com 1.10,2013-05-21 01:08:00,
2013-05-20 18:23:00,55.9,46.0,29.94,WSW,250,7.0,14.0,70,0.00,,,0.00,318,weatherlink.com 1.10,2013-05-21 01:23:00,
2013-05-20 18:38:00,55.3,46.0,29.94,WNW,301,6.0,15.0,71,0.00,,,0.00,199,weatherlink.com 1.10,2013-05-21 01:38:00,
2013-05-20 18:53:00,55.0,46.0,29.94,NW,311,6.0,12.0,72,0.00,,,0.00,221,weatherlink.com 1.10,2013-05-21 01:53:00,
2013-05-20 19:08:00,54.5,46.0,29.95,NW,305,4.0,14.0,72,0.00,,,0.00,186,weatherlink.com 1.10,2013-05-21 02:08:00,
2013-05-20 19:23:00,54.9,46.0,29.95,West,269,4.0,12.0,72,0.00,,,0.00,111,weatherlink.com 1.10,2013-05-21 02:23:00,
2013-05-20 19:38:00,54.3,45.0,29.95,NW,322,5.0,11.0,72,0.00,,,0.00,91,weatherlink.com 1.10,2013-05-21 02:38:00,
2013-05-20 19:53:00,54.3,45.0,29.95,West,275,6.0,11.0,72,0.00,,,0.00,42,weatherlink.com 1.10,2013-05-21 02:53:00,
2013-05-20 20:08:00,53.5,45.0,29.95,West,266,5.0,10.0,72,0.00,,,0.00,21,weatherlink.com 1.10,2013-05-21 03:08:00,
2013-05-20 20:23:00,52.6,44.0,29.95,WNW,294,1.0,7.0,73,0.00,,,0.00,5,weatherlink.com 1.10,2013-05-21 03:23:00,
2013-05-20 20:38:00,52.1,44.0,29.95,WNW,299,2.0,6.0,73,0.00,,,0.00,0,weatherlink.com 1.10,2013-05-21 03:38:00,
2013-05-20 20:53:00,51.9,43.0,29.96,WNW,286,0.0,4.0,73,0.00,,,0.00,0,weatherlink.com 1.10,2013-05-21 03:53:00,
2013-05-20 21:08:00,51.1,43.0,29.96,NW,311,1.0,2.0,73,0.00,,,0.00,0,weatherlink.com 1.10,2013-05-21 04:08:00,
2013-05-20 21:23:00,49.8,42.0,29.96,NW,311,0.0,2.0,74,0.00,,,0.00,0,weatherlink.com 1.10,2013-05-21 04:23:00,
2013-05-20 21:38:00,49.0,41.0,29.96,NW,311,1.0,2.0,74,0.00,,,0.00,0,weatherlink.com 1.10,2013-05-21 04:38:00,
2013-05-20 21:53:00,48.8,41.0,29.97,NNE,21,0.0,1.0,74,0.00,,,0.00,0,weatherlink.com 1.10,2013-05-21 04:53:00,
2013-05-20 22:08:00,48.5,41.0,29.97,NNE,25,1.0,6.0,74,0.00,,,0.00,0,weatherlink.com 1.10,2013-05-21 05:08:00,
2013-05-20 22:23:00,48.4,40.0,29.97,NNE,25,0.0,2.0,74,0.00,,,0.00,0,weatherlink.com 1.10,2013-05-21 05:23:00,
2013-05-20 22:38:00,47.6,40.0,29.97,NNE,25,0.0,3.0,74,0.00,,,0.00,0,weatherlink.com 1.10,2013-05-21 05:38:00,
2013-05-20 22:53:00,47.5,40.0,29.97,NNE,25,0.0,2.0,74,0.00,,,0.00,0,weatherlink.com 1.10,2013-05-21 05:53:00,
2013-05-20 23:08:00,47.2,39.0,29.97,NNE,25,1.0,2.0,74,0.00,,,0.00,0,weatherlink.com 1.10,2013-05-21 06:08:00,
2013-05-20 23:23:00,47.0,39.0,29.97,NNE,25,0.0,1.0,74,0.00,,,0.00,0,weatherlink.com 1.10,2013-05-21 06:23:00,
2013-05-20 23:38:00,47.1,39.0,29.96,NNE,25,0.0,3.0,74,0.00,,,0.00,0,weatherlink.com 1.10,2013-05-21 06:38:00,
2013-05-20 23:53:00,47.0,39.0,29.96,NNE,25,0.0,2.0,74,0.00,,,0.00,0,weatherlink.com 1.10,2013-05-21 06:53:00,